Regional Weather Roundup
Issued by NWS

Home | Current Version | Previous Version | Graphics & Text | Print | Product List | Glossary On
Versions: 1 2 3 4 5 6 7 8 9 10 11 12 13 14 15 16 17 18 19 20 21 22 23 24 25 26 27 28 29 30 31 32 33 34 35 36 37 38 39 40 41 42 43 44 45 46 47 48 49 50
000
ASUS43 KTOP 252259
RWRKS

WEATHER ROUNDUP FOR KANSAS
NATIONAL WEATHER SERVICE GOODLAND KS
600 PM CDT SUN JUN 25 2017

NOTE:  "FAIR" INDICATES FEW OR NO CLOUDS BELOW 12,000 FEET WITH NO
SIGNIFICANT WEATHER AND/OR OBSTRUCTIONS TO VISIBILITY.

KSZ001>006-013>018-027>032-041>047-260000-
NORTHWEST KANSAS

CITY           SKY/WX    TMP DP  RH WIND       PRES   REMARKS
GOODLAND       CLOUDY    60  57  89 E13       30.28F
HAYS           CLOUDY    63  57  81 NE12      30.29R
HILL CITY      RAIN      61  60  97 VRB3      30.30F FOG
RUSSELL        CLOUDY    65  53  65 E13       30.26F
$$

KSZ061>065-074>080-084>089-260000-
SOUTHWEST KANSAS

CITY           SKY/WX    TMP DP  RH WIND       PRES   REMARKS
DODGE CITY     SUNNY     70  61  73 SE14      30.24F
ELKHART          N/A     69  52  54 E15         N/A
GARDEN CITY    MOSUNNY   71  56  58 SE20      30.25S
GREAT BEND     CLOUDY    65  59  81 E14       30.25F
LIBERAL        LGT RAIN  65  61  87 E15G30    30.21F
$$

KSZ066>073-081>083-090>101-260000-
SOUTHEAST KANSAS

CITY           SKY/WX    TMP DP  RH WIND       PRES   REMARKS
CHANUTE        CLOUDY    78  57  48 N14       30.24S
COFFEYVILLE    MOSUNNY   84  54  35 NE7       30.20F
HUTCHINSON     CLOUDY    67  56  67 E10       30.24F
MEDICINE LODGE   N/A     74  59  59 NE16      30.21F
NEWTON         CLOUDY    64  58  80 E9G17     30.26F
PARSONS        CLOUDY    80  59  48 NE7       30.23S
WICHITA INTL   CLOUDY    70  64  81 NE17      30.24F
WICHITA JABRA  CLOUDY    67  62  84 NE15G21   30.25F
WINFIELD       RAIN      70  64  81 N14G23    30.26R
$$

KSZ007>012-019>026-033>040-048>060-102>105-260000-
NORTHEAST KANSAS

CITY           SKY/WX    TMP DP  RH WIND       PRES   REMARKS
CONCORDIA      CLOUDY    65  52  62 S5        30.27F
EMPORIA        CLOUDY    65  53  65 NE12      30.29F
LAWRENCE       LGT RAIN  63  53  70 W6        30.28F
MANHATTAN      CLOUDY    64  58  80 SE3       30.27F
OLATHE IND     CLOUDY    67  49  52 NW8       30.28F
OLATHE EXE     CLOUDY    68  46  45 N6        30.27F
SALINA         CLOUDY    67  53  61 E8        30.27F
TOPEKA BILLARD LGT RAIN  63  56  78 SW5       30.27F
TOPEKA FORBES  LGT RAIN  63  56  78 W6        30.29F
$$



USA.gov is the U.S. government's official web portal to all federal, state and local government web resources and services.